OBJECT F, 61899

Orbit data source: Space-Track

You're viewing an Uncataloged Satellite

Recently launched and/or uncataloged satellites may have evolving metadata. Metadata may include but not limited to: Owner, Maufacturer, Bus, Motor, and Mission.

OBJECT F, 61899 is a Chinese satellite in SSO that was launched on Mon, 11 Nov 2024 UTC via a LIJIAN-1 launch vehicle from the Jiuquan Satellite Launch Center, China (JSC). Unknown objects in Earth's orbit typically refer to objects detected orbiting the Earth but have not yet been identified or cataloged. These objects could be anything from previously untracked satellites, spent rocket stages, debris from satellite collisions, or even natural meteoroids temporarily captured by Earth's gravity.

Loading next visibility...
Identifier
61899, 2024-205F
Orbit
SSO
Country
Flag of CNCN / PRC
Related business
None
Manufacturer
Unknown
Mission
Operational Commercial Imaging
Bus & Motor
Unknown
Mass
Unknown
Launch date (UTC)
2024-11-11 (1 year ago)
Launch vehicle
LIJIAN-1
Launch site
Jiuquan Satellite Launch Center, China (JSC)
Object type
Unknown
Shape & HBR
Box + 2 Pan, 0.5 m
Radar Cross Section
0.195 m², Medium (>0.1 m² and < 1m²)

Expand to show TLE details & history
Last TLE update: 3 hours ago

TLE from 3 hours ago
0 OBJECT F
1 61899U 24205F   26120.21678522  .00009827  00000-0  53565-3 0  9993
2 61899  97.4114 192.7661 0007039 182.3009 177.8192 15.14567814 81012
Epoch: 2026-04-30T05:12Z
TLE epoch observation values (Epoch: 2026-04-30T05:12:10.243Z)
Latitude
0.00001°
Longitude
-103.44315°
Altitude
530.229 km
Speed
7.595 km/s
True Right ascension
12h 51m 03s
True Declination
0° 00' 00"
Sunlit
Object was in full shadow at epoch
Visualization orbit readout
Latitude
Unknown
Longitude
Unknown
Altitude
Unknown
Speed
Unknown
Apparent Right ascension
Unknown
Apparent Declination
Unknown
Sunlit
N/A
Visualization observer readout
Local Sidereal Time
15:37:48
Azimuth
Unknown
Elevation
Unknown
Doppler factor
Unknown
Orbital elements
Apogee altitude
524.119 km
Perigee altitude
514.409 km
Semi-major axis
6,897.401 km
Eccentricity
0.0007
Inclination
97.4114°
RAAN
192.7661°
Arg. of periapsis
182.3009°
True anomaly
177.82227°
Mean anomaly
177.8192°
Eccentric anomaly
177.82073°
Mean motion
3.78892 °/min
Orbital period
95.01 mins
BSTAR
0.00053565
Loading maneuver chart data...
Computing Atmospheric mass density...
Loading historical data...
Loading historical data...
Loading historical data...
Loading historical data...
Loading historical data...
Loading historical data...
Loading historical data...

Documentation

Showing up to 5 results
|